TimeMDT,TemperatureF,Dew PointF,Humidity,Sea Level PressureIn,VisibilityMPH,Wind Direction,Wind SpeedMPH,Gust SpeedMPH,PrecipitationIn,Events,Conditions,WindDirDegrees,DateUTC
12:51 AM,33.1,25.0,72,30.05,10.0,Calm,Calm,-,N/A,,Clear,0,2014-04-11 06:51:00
1:51 AM,32.0,24.1,73,30.05,10.0,NE,3.5,-,N/A,,Clear,50,2014-04-11 07:51:00
2:51 AM,30.0,24.1,79,30.04,10.0,Calm,Calm,-,N/A,,Clear,0,2014-04-11 08:51:00
3:51 AM,30.0,23.0,75,30.03,10.0,Calm,Calm,-,N/A,,Clear,0,2014-04-11 09:51:00
4:51 AM,28.0,23.0,81,30.04,10.0,Calm,Calm,-,N/A,,Clear,0,2014-04-11 10:51:00
5:51 AM,28.0,21.9,78,30.04,10.0,Calm,Calm,-,N/A,,Clear,0,2014-04-11 11:51:00
6:51 AM,27.0,21.9,81,30.04,10.0,Calm,Calm,-,N/A,,Clear,0,2014-04-11 12:51:00
7:51 AM,28.0,23.0,81,30.04,10.0,Calm,Calm,-,N/A,,Clear,0,2014-04-11 13:51:00
8:51 AM,34.0,25.0,70,30.04,10.0,Calm,Calm,-,N/A,,Clear,0,2014-04-11 14:51:00
9:51 AM,39.0,26.1,60,30.03,10.0,South,3.5,-,N/A,,Clear,170,2014-04-11 15:51:00
10:51 AM,44.1,23.0,43,30.03,10.0,Calm,Calm,-,N/A,,Clear,0,2014-04-11 16:51:00
11:51 AM,50.0,24.1,36,30.00,10.0,Calm,Calm,-,N/A,,Clear,0,2014-04-11 17:51:00
12:51 PM,52.0,21.0,30,29.98,10.0,Calm,Calm,-,N/A,,Clear,0,2014-04-11 18:51:00
1:51 PM,55.9,24.1,29,29.96,10.0,North,-9999.0,-,N/A,,Clear,0,2014-04-11 19:51:00
2:51 PM,57.0,25.0,29,29.95,10.0,Variable,3.5,-,N/A,,Partly Cloudy,0,2014-04-11 20:51:00
3:51 PM,57.9,25.0,28,29.93,10.0,West,10.4,-,N/A,,Clear,280,2014-04-11 21:51:00
4:51 PM,57.9,25.0,28,29.92,10.0,Variable,5.8,-,N/A,,Clear,0,2014-04-11 22:51:00
5:51 PM,59.0,26.1,28,29.89,10.0,West,9.2,-,N/A,,Clear,260,2014-04-11 23:51:00
6:51 PM,57.0,26.1,30,29.91,10.0,West,9.2,-,N/A,,Clear,260,2014-04-12 00:51:00
7:51 PM,55.0,25.0,31,29.89,10.0,SW,3.5,-,N/A,,Clear,230,2014-04-12 01:51:00
8:51 PM,46.0,28.9,51,29.89,10.0,ENE,5.8,-,N/A,,Clear,60,2014-04-12 02:51:00
9:51 PM,42.1,28.9,60,29.90,10.0,Calm,Calm,-,N/A,,Clear,0,2014-04-12 03:51:00
10:51 PM,39.0,28.9,67,29.88,10.0,Variable,3.5,-,N/A,,Clear,0,2014-04-12 04:51:00
11:51 PM,37.0,28.0,70,29.86,10.0,NW,5.8,-,N/A,,Clear,310,2014-04-12 05:51:00